Regional Weather Roundup
Issued by NWS Nashville, TN

Home | Current Version | Previous Version | Text Only | Print | Product List | Glossary On
Versions: 1 2 3 4 5 6 7 8 9 10 11 12 13 14 15 16 17 18 19 20 21 22 23 24 25 26 27 28 29 30 31 32 33 34 35 36 37 38 39 40 41 42 43 44 45 46 47 48 49 50
000
ASUS44 KOHX 220710
RWROHX
MIDDLE TENNESSEE HOURLY WEATHER ROUNDUP
NATIONAL WEATHER SERVICE NASHVILLE TN
200 AM CDT SUN OCT 22 2017

NOTE: "FAIR" INDICATES FEW OR NO CLOUDS BELOW 12,000 FEET WITH
NO SIGNIFICANT WEATHER AND/OR OBSTRUCTIONS TO VISIBILITY.

* THESE REPORTS ARE NOT UNDER NWS QUALITY CONTROL AND MAY NOT
  REPORT WEATHER SUCH AS PRECIPITATION AND FOG.


TNZ005>011-023>034-057-059-062>066-078-080-220800
...NORTHERN MIDDLE TENNESSEE...

CITY           SKY/WX    TMP DP  RH WIND       PRES   REMARKS
CLARKSVILLE    MOCLDY    63  55  75 SE8       30.13R
CROSSVILLE     PTCLDY    58  46  64 S5        30.25F
GALLATIN       CLOUDY    61  52  72 CALM      30.19S
DICKSON          N/A     63  56  78 S8        30.14R
LEBANON        CLOUDY    66  50  56 SE6       30.14F
NASHVILLE      CLOUDY    65  54  67 S7        30.16S
PORTLAND       MOCLDY    64  52  63 S9G16     30.14S
SMYRNA         PTCLDY    63  54  72 S5        30.17S
SPARTA         MOCLDY    61  50  67 S7        30.19F
SPRINGFIELD    MOCLDY    63  54  72 SE7       30.12F
WEST NASHVILLE CLEAR     66  55  68 SE5       30.14R
$$
TNZ056-058-060-061-075>077-079-093>097-220800
...SOUTHERN MIDDLE TENNESSEE...

CITY           SKY/WX    TMP DP  RH WIND       PRES   REMARKS
COLUMBIA       CLEAR     66  57  72 S8        30.13R
FAYETTEVILLE   PTCLDY    64  55  72 SE12G17   30.17S
MURFREESBORO   PTCLDY    66  52  60 SE12      30.15F
PULASKI        CLEAR     64  57  77 SE6       30.15F
SHELBYVILLE    CLEAR     64  54  68 SE9G16    30.16F
TULLAHOMA      CLEAR     63  48  59 SE10      30.20F
WINCHESTER     CLEAR     64  52  63 S5          N/A
$$


...KEY TO REMARKS...
VSB - VISIBILITY IN MILES
WCI - WIND CHILL INDEX
HX  - HEAT INDEX




USA.gov is the U.S. government's official web portal to all federal, state and local government web resources and services.